Location: Courdimanche
(49.0351°N, 2.0010°E)
Time: 20:24:28
(UTC+00:00)

Daily predictions for brighter satellites

Satellite Brightness Start Highest point End
(mag) Time Altitude Azimuth Time Altitude Azimuth Time Altitude Azimuth
Cosmos 1464 Rocket 4.1 20:05:50 10° N 20:12:12 83° E 20:18:27 10° S
Meteor 2-2 Rocket 4.4 20:06:36 10° S 20:12:34 68° E 20:18:32 10° NNE
Okean O Rocket 2.6 20:12:38 10° S 20:16:55 48° W 20:21:15 10° NNW
Terra 2.6 20:14:30 10° SE 20:18:49 37° ENE 20:23:09 10° N
USA 234 4.4 20:13:02 10° ENE 20:19:12 46° N 20:25:22 10° WNW
Cosmos 1656 Rocket 4.2 20:16:43 10° NNW 20:21:59 47° NE 20:27:16 10° SE
Cosmos 1371 Rocket 4.4 20:17:26 10° NNW 20:22:42 54° ENE 20:27:56 10° SE
ERS-1 Rocket 3.4 20:19:27 10° SE 20:24:18 50° ENE 20:29:09 10° N
MOS 1 4.4 20:19:19 10° SSE 20:25:01 88° W 20:30:43 10° NNW
ATLAS 2AS CENTAUR R/B 3.0 20:17:56 10° SW 20:25:21 83° NW 20:32:30 10° NE
SPOT 3 Rocket 4.3 20:24:20 10° SE 20:29:04 39° ENE 20:33:49 10° N
USA 59 Rocket 2.5 20:28:38 10° N 20:29:30 11° NNE 20:30:24 10° NE
Cosmos 1782 3.1 20:26:01 10° SSW 20:29:48 67° W 20:33:37 10° N
IRS-1A Rocket 4.3 20:26:08 10° SSE 20:31:46 74° ENE 20:37:21 10° NNW
Meteor 1-26 Rocket 4.5 20:27:26 10° S 20:33:22 61° E 20:39:18 10° NNE
USA 281 3.7 20:27:47 10° SE 20:34:03 49° NE 20:40:22 10° NNW
Cosmos 1943 Rocket 3.1 20:28:47 10° NW 20:34:11 46° WSW 20:39:32 10° S
Cosmos 1420 Rocket 4.1 20:29:56 10° NNW 20:35:16 78° ENE 20:40:30 10° SSE
Cosmos 1743 3.3 20:35:08 10° N 20:38:32 38° ENE 20:41:25 13° SE
Cosmos 2278 Rocket 4.0 20:34:06 10° NW 20:38:46 27° WSW 20:43:23 10° SSW
ISS -3.0 20:36:02 10° WNW 20:39:19 52° N 20:42:35 10° E
NOSS 3-1 (A) 4.2 20:32:24 10° NW 20:39:40 76° SW 20:48:11 11° SSE
Cosmos 972 4.3 20:35:19 10° SSW 20:40:12 85° ESE 20:45:12 10° NNE
USA 245 2.1 20:42:39 16° SSE 20:44:15 52° ENE 20:46:26 10° N
SL-24 R/B - RUBIN 2 4.5 20:39:47 10° SSW 20:45:51 64° ESE 20:52:26 10° NE
Cosmos 2297 3.8 20:40:36 10° NNW 20:46:22 71° ENE 20:51:24 14° SE
Cosmos 1634 Rocket 4.2 20:40:45 10° N 20:46:59 57° ENE 20:52:38 12° SSE
Cosmos 2112 Rocket 4.1 20:44:23 10° S 20:49:39 64° ESE 20:54:54 10° NNE
USA 290 2.8 20:47:36 10° NNW 20:50:45 53° WSW 20:53:34 12° S
Cosmos 1766 Rocket 3.7 20:47:16 10° N 20:51:42 65° ENE 20:55:32 14° SSE
Okean-O 3.8 20:47:38 10° SSW 20:51:46 40° W 20:55:58 10° NNW
USA 229 DEB 4.2 20:47:17 10° NW 20:54:34 68° NE 21:01:46 13° SE
USA 229 4.2 20:47:23 10° NW 20:54:41 68° NE 21:01:53 13° SE
Cosmos 2034 Rocket 4.3 20:49:47 10° NNW 20:55:58 71° W 21:02:10 10° S
Cosmos 1726 3.2 20:54:26 10° NNE 20:57:03 23° ENE 20:58:35 16° ESE
Spot 2 Rocket 3.5 20:54:06 13° SSE 20:58:35 75° ENE 21:03:37 10° NNW
Cosmos 1680 Rocket 3.5 20:54:34 10° SSW 20:59:52 88° ESE 21:05:11 10° NNE
Meteor 2-6 Rocket 4.4 20:58:36 10° S 21:04:05 54° E 21:09:27 10° NNE
USA 32 4.0 21:01:20 10° S 21:06:32 73° E 21:11:45 10° N
Tsikada Rocket 4.0 21:02:46 10° S 21:08:58 88° E 21:15:15 10° N
Helios 1B 4.5 21:09:32 10° NNE 21:13:52 71° ESE 21:17:56 11° S
MetOp-A 4.1 21:11:24 19° SE 21:14:22 50° ENE 21:18:58 10° N
USA 276 1.1 21:12:20 10° WNW 21:14:32 74° SSW 21:15:14 38° ESE
SL-16 R/B 2.2 21:09:35 10° SSW 21:15:16 86° WNW 21:21:00 10° NNE
Cosmos 2263 4.3 21:10:10 10° NNW 21:15:51 68° ENE 21:20:00 19° SE
MOS 1 Rocket 3.5 21:13:56 17° SSE 21:17:50 83° ENE 21:23:07 10° NNW
Cosmos 2056 Rocket 4.0 21:13:49 10° NNW 21:19:08 58° WSW 21:23:28 15° S
Lacrosse 5 2.8 21:15:09 10° WNW 21:19:50 37° SW 21:23:08 18° S
Cosmos 1536 3.5 21:16:38 10° N 21:20:18 39° ENE 21:22:15 23° SE
Ariane Rocket 3.1 21:16:49 15° S 21:21:02 74° WSW 21:26:08 10° NNW
Lacrosse 5 rocket 1.8 21:16:54 10° WSW 21:21:11 66° NNW 21:25:23 10° NE
Cosmos 1624 Rocket 4.5 21:16:23 10° NNW 21:21:28 55° WSW 21:25:35 15° S
Cosmos 1452 Rocket 3.9 21:18:10 10° NNW 21:23:19 53° ENE 21:26:45 20° SE
Cosmos 1408 Rocket 4.1 21:19:25 10° N 21:23:43 46° ENE 21:26:12 23° SE
Cosmos 44 3.7 21:19:04 10° NW 21:23:46 50° WSW 21:26:45 20° S
Spot 1 4.0 21:20:55 10° NNE 21:24:55 56° ESE 21:27:36 20° S
Okean 1 4.3 21:25:59 23° SE 21:27:18 29° E 21:30:41 10° NNE
Cosmos 1340 4.3 21:25:09 10° NNE 21:27:36 18° ENE 21:28:49 15° E
Cosmos 2221 3.2 21:23:31 10° SSW 21:27:45 55° WNW 21:32:02 10° N
Cosmos 2369 Rocket 2.2 21:22:56 10° NNW 21:28:33 78° WSW 21:32:23 21° SSE
Cosmos 2084 3.6 21:28:26 10° NW 21:32:05 49° SW 21:33:53 26° S
FALCON 9 R/B 4.3 21:28:53 10° SW 21:35:05 35° S 21:53:06 10° ESE
USA 306 3.5 21:37:52 10° WNW 21:41:35 47° NNE 21:45:08 11° E
Cosmos 921 Rocket 3.4 21:38:20 10° SSW 21:42:47 68° WNW 21:47:18 10° NNE
Okean 3 Rocket 3.8 21:41:01 10° NNW 21:45:24 65° W 21:48:06 22° S
GEOS 3 Rocket 3.7 21:41:27 10° NE 21:46:40 78° NW 21:51:47 10° SW
ATLAS 3B R/B 4.0 21:44:31 10° NW 21:51:29 36° WSW 21:57:02 15° S
Landsat 5 3.2 21:48:50 10° NNE 21:52:37 80° WNW 21:54:55 23° SSW
SL-8 R/B 4.0 21:49:41 10° SW 21:54:07 40° SSE 21:58:33 10° E
Cosmos 1500 Rocket 3.5 21:51:46 10° N 21:56:07 72° E 21:57:58 33° SSE
Terra 3.3 21:52:38 12° SSW 21:56:28 30° W 22:00:38 10° NNW
Cosmos 1943 3.1 21:53:56 15° SSW 21:58:37 71° ESE 22:04:16 10° NNE
Cosmos 1733 3.3 21:55:45 10° N 21:59:14 52° ENE 22:00:07 40° SE
USA 234 4.1 21:55:17 10° E 22:01:34 51° NNE 22:07:51 10° WNW
Cosmos 1048 Rocket 3.9 21:59:00 17° SSW 22:03:05 86° ESE 22:08:14 10° NNE
H-2A R/B 3.5 22:02:30 25° ESE 22:04:07 34° ENE 22:07:56 10° N
Cosmos 1805 Rocket 3.5 22:00:39 10° N 22:05:01 74° ENE 22:06:48 35° SSE
Cosmos 1842 Rocket 4.2 22:01:41 15° SSW 22:05:12 53° WNW 22:09:34 10° N
Cosmos 494 Rocket 4.2 22:01:14 10° SSW 22:06:18 68° WNW 22:11:26 10° NNE
Meteor 1-10 Rocket 4.3 22:02:23 18° SSW 22:06:46 83° WNW 22:12:28 10° N
Lacrosse 4 Rocket 3.7 22:04:26 10° N 22:07:15 18° NE 22:10:05 10° E
Cosmos 1151 Rocket 3.5 22:08:37 34° SE 22:09:54 45° E 22:14:04 10° NNE
Meteor 2-9 Rocket 4.3 22:05:55 10° NNW 22:11:45 88° W 22:14:55 29° S
Cosmos 1302 Rocket 4.2 22:09:35 10° NNW 22:14:44 60° ENE 22:17:13 30° SE
Meteor 1-11 Rocket 3.9 22:09:24 10° NNW 22:14:59 67° W 22:18:13 26° S
ISS -3.9 22:12:46 10° WNW 22:16:06 76° SSW 22:16:32 62° SE
Cosmos 1633 Rocket 4.3 22:12:40 10° N 22:16:36 30° ENE 22:18:08 24° ESE
Meteor 2-10 4.1 22:11:17 10° NNW 22:16:56 83° W 22:19:41 31° S
Meteor 1-19 Rocket 4.3 22:14:06 26° S 22:17:35 78° E 22:23:25 10° NNE
ARIANE 5 R/B 2.6 22:16:04 37° SSE 22:17:41 72° ENE 22:22:01 10° N
Cosmos 1340 Rocket 2.8 22:17:22 44° SSE 22:18:25 61° E 22:22:22 10° NNE
USA 281 4.0 22:14:24 20° SSW 22:18:38 42° WSW 22:24:51 10° NW
USA 59 Rocket 1.0 22:16:32 10° NNW 22:20:02 40° NE 22:22:59 19° ESE
Cosmos 1331 Rocket 4.2 22:15:39 10° NNW 22:20:51 62° WSW 22:23:13 31° S
NOSS 2-1 (E) 4.5 22:17:22 10° NNW 22:20:54 40° NE 22:23:49 19° ESE
MINOTAUR 4 R/B 3.5 22:19:26 10° NNE 22:22:21 65° E 22:22:21 65° E
Cosmos 1110 Rocket 4.4 22:17:33 10° NNW 22:22:45 56° WSW 22:25:12 30° S
BREEZE-M DEB (TANK) 4.3 22:18:49 10° WSW 22:22:52 87° S 22:41:22 10° E
IRIDIUM 103 4.5 22:19:09 10° N 22:24:21 62° E 22:26:30 35° SSE
H-2A R/B 4.4 22:23:56 10° ENE 22:25:23 11° E 22:25:53 11° E
CZ-2C R/B 3.6 22:21:11 10° NNE 22:25:44 72° ESE 22:27:22 39° S
Cosmos 1726 3.8 22:27:47 10° NW 22:30:09 20° W 22:31:07 17° WSW
NOSS 2-1 (D) 4.1 22:28:56 10° NNW 22:32:32 51° NE 22:34:55 25° ESE
Nadezhda 4 Rocket 4.0 22:30:39 26° SSW 22:34:21 83° W 22:40:38 10° N
Molniya-1 4.3 22:35:27 26° SSW 22:37:51 77° SE 22:48:54 10° NE
Cosmos 1805 3.0 22:35:49 10° N 22:39:32 84° E 22:40:09 61° SSE
IRIDIUM 106 4.3 22:37:26 10° N 22:42:42 87° E 22:44:46 38° S
Cosmos 1743 Rocket 4.2 22:42:12 10° NNW 22:46:24 46° W 22:47:56 32° SW
Sich 1 4.0 22:47:00 10° NNW 22:51:03 38° W 22:52:35 28° SW
Spot 2 4.4 22:50:57 41° SE 22:52:25 67° ENE 22:57:12 10° N
Cosmos 1975 2.7 22:52:31 10° NNW 22:56:29 82° W 22:57:09 60° S
Lacrosse 5 rocket 3.4 22:56:22 10° WNW 23:00:07 29° N 23:03:46 10° NE
Cosmos 1603 4.0 22:57:29 18° SW 23:01:43 64° WNW 23:07:25 10° NNE
Cosmos 1340 3.6 22:58:54 10° NNW 23:01:57 31° W 23:02:14 31° WSW
Cosmos 1626 2.0 23:04:41 61° ENE 23:04:41 61° ENE 23:07:39 10° NNE
PSLV R/B 4.4 23:03:05 10° N 23:07:04 53° WNW 23:08:26 35° SW
USA 267 3.3 23:01:03 10° ENE 23:07:26 54° SE 23:10:42 29° SSW
Cosmos 1674 3.9 23:07:50 25° E 23:07:50 25° E 23:10:34 10° NNE
NOSS 2-1 (C) 3.4 23:03:59 10° NW 23:07:47 88° SW 23:09:08 46° SE
Cosmos 1627 Rocket 4.5 23:05:12 33° S 23:08:16 87° WNW 23:14:38 10° N
Cosmos 2369 Rocket 4.4 23:09:11 10° WNW 23:11:35 13° W 23:14:00 10° WSW
PSLV R/B 4.4 23:08:58 10° NNE 23:13:17 38° E 23:13:59 36° ESE
USA 306 2.7 23:11:38 10° WNW 23:15:15 60° SW 23:15:15 60° SW
Cosmos 2026 Rocket 4.1 23:12:23 32° SSW 23:15:30 78° W 23:21:48 10° N
Cosmos 1833 Rocket 3.8 23:17:10 26° ESE 23:18:11 28° ESE 23:22:52 10° NE
NOSS 3-3 (C) 4.2 23:26:06 38° SSE 23:27:15 43° ESE 23:33:07 10° NE
SL-24 R/B 4.4 23:26:08 10° NNE 23:30:33 60° ESE 23:31:32 48° SSE
Cosmos 220 Rocket 3.9 23:30:05 54° SSW 23:31:04 83° WNW 23:35:25 10° NNE
Cosmos 1515 Rocket 3.6 23:31:37 54° SE 23:32:19 64° E 23:36:38 10° NNE
Cosmos 1328 Rocket 3.8 23:33:11 44° SW 23:34:17 59° WNW 23:38:35 10° N
GP-B 4.3 23:30:53 10° NNE 23:34:50 31° E 23:35:54 28° ESE
SL-8 R/B 3.5 23:31:31 10° WSW 23:36:16 80° S 23:41:04 10° E
ALOS 2 2.9 23:36:13 47° SW 23:37:01 55° W 23:41:21 10° NNW
Cosmos 1553 Rocket 3.9 23:31:10 10° N 23:37:16 82° W 23:39:39 40° S
H-2A R/B 3.8 23:38:30 25° WSW 23:39:07 26° W 23:42:40 10° NW
Cosmos 1470 Rocket 3.7 23:36:30 10° NNW 23:40:56 64° W 23:41:47 52° SSW
Cosmos 1869 Rocket 4.4 23:37:37 10° N 23:41:46 42° ENE 23:42:58 34° ESE
USA 234 3.2 23:38:50 16° SE 23:44:21 86° SSW 23:50:57 10° WNW
Meteor 2-4 Rocket 4.5 23:42:30 26° SW 23:45:33 49° WNW 23:51:19 10° N
Lacrosse 4 Rocket 1.2 23:41:57 10° NW 23:46:02 80° WSW 23:46:28 68° S
Cosmos 1633 Rocket 4.2 23:50:24 10° NNW 23:54:17 30° W 23:55:08 28° WSW
